TimePDT,TemperatureF,Dew PointF,Humidity,Sea Level PressureIn,VisibilityMPH,Wind Direction,Wind SpeedMPH,Gust SpeedMPH,PrecipitationIn,Events,Conditions,WindDirDegrees,DateUTC
12:53 AM,68.0,63.0,84,29.91,10.0,Calm,Calm,-,0.01,Rain,Light Rain,0,2013-08-29 07:53:00
1:53 AM,66.9,63.0,87,29.89,10.0,Calm,Calm,-,0.01,Rain,Light Rain,0,2013-08-29 08:53:00
2:53 AM,66.0,64.0,93,29.88,6.0,Calm,Calm,-,0.05,Rain,Light Rain,0,2013-08-29 09:53:00
3:53 AM,66.0,64.0,93,29.86,10.0,Calm,Calm,-,0.03,Rain,Light Rain,0,2013-08-29 10:53:00
4:04 AM,66.2,64.4,94,29.87,10.0,WNW,3.5,-,0.00,Rain,Light Rain,290,2013-08-29 11:04:00
4:23 AM,66.2,64.4,94,29.85,10.0,Calm,Calm,-,0.00,,Mostly Cloudy,0,2013-08-29 11:23:00
4:37 AM,66.2,64.4,94,29.85,10.0,Calm,Calm,-,0.00,,Mostly Cloudy,0,2013-08-29 11:37:00
4:53 AM,66.0,64.0,93,29.84,10.0,Calm,Calm,-,0.00,,Mostly Cloudy,0,2013-08-29 11:53:00
5:00 AM,66.2,64.4,94,29.84,10.0,Calm,Calm,-,N/A,,Mostly Cloudy,0,2013-08-29 12:00:00
5:14 AM,66.2,64.4,94,29.84,10.0,WNW,4.6,-,N/A,,Scattered Clouds,300,2013-08-29 12:14:00
5:53 AM,64.9,64.0,97,29.86,10.0,Calm,Calm,-,0.00,Rain,Light Rain,0,2013-08-29 12:53:00
6:53 AM,66.0,63.0,90,29.86,10.0,Calm,Calm,-,0.05,Rain,Light Rain,0,2013-08-29 13:53:00
7:37 AM,66.2,64.4,94,29.89,10.0,Calm,Calm,-,0.02,Rain,Light Rain,0,2013-08-29 14:37:00
7:53 AM,66.0,64.0,93,29.88,5.0,Calm,Calm,-,0.04,Rain,Light Rain,0,2013-08-29 14:53:00
8:53 AM,66.9,64.0,90,29.90,10.0,SE,3.5,-,0.01,,Overcast,130,2013-08-29 15:53:00
9:38 AM,68.0,64.4,88,29.92,10.0,South,4.6,-,N/A,,Overcast,170,2013-08-29 16:38:00
9:53 AM,68.0,64.9,90,29.92,10.0,SSE,3.5,-,N/A,,Overcast,150,2013-08-29 16:53:00
10:39 AM,69.8,64.4,83,29.93,10.0,Variable,3.5,-,N/A,,Overcast,0,2013-08-29 17:39:00
10:53 AM,69.1,66.0,90,29.94,6.0,ESE,8.1,-,0.01,Rain,Light Rain,120,2013-08-29 17:53:00
11:17 AM,69.8,66.2,88,29.94,10.0,SSE,5.8,-,0.00,,Overcast,150,2013-08-29 18:17:00
11:44 AM,71.6,64.4,78,29.94,10.0,SSE,5.8,-,0.00,,Mostly Cloudy,150,2013-08-29 18:44:00
11:53 AM,72.0,66.0,81,29.94,10.0,SE,6.9,-,0.00,,Scattered Clouds,130,2013-08-29 18:53:00
12:53 PM,73.9,63.0,68,29.94,10.0,Variable,4.6,-,N/A,,Scattered Clouds,0,2013-08-29 19:53:00
1:53 PM,75.0,62.1,64,29.96,10.0,SSW,8.1,-,N/A,,Mostly Cloudy,210,2013-08-29 20:53:00
2:53 PM,77.0,60.1,56,29.96,10.0,SSW,9.2,17.3,N/A,,Overcast,210,2013-08-29 21:53:00
3:53 PM,77.0,61.0,58,29.96,10.0,SSE,12.7,21.9,N/A,,Scattered Clouds,160,2013-08-29 22:53:00
4:26 PM,73.4,62.6,69,29.97,10.0,West,10.4,-,N/A,Thunderstorm,Mostly Cloudy,270,2013-08-29 23:26:00
4:41 PM,73.4,64.4,73,29.97,10.0,West,6.9,-,N/A,,Mostly Cloudy,280,2013-08-29 23:41:00
4:53 PM,75.0,63.0,66,29.98,10.0,West,5.8,-,N/A,,Mostly Cloudy,260,2013-08-29 23:53:00
5:53 PM,77.0,60.1,56,29.98,10.0,SSW,4.6,-,N/A,,Mostly Cloudy,210,2013-08-30 00:53:00
6:53 PM,75.9,60.1,58,29.99,10.0,SSW,6.9,-,N/A,,Overcast,210,2013-08-30 01:53:00
7:53 PM,73.9,61.0,64,30.01,10.0,SSW,3.5,-,0.00,,Overcast,210,2013-08-30 02:53:00
8:53 PM,70.0,63.0,78,30.03,10.0,Variable,4.6,-,0.00,Rain,Light Rain,0,2013-08-30 03:53:00
9:53 PM,69.1,64.0,84,30.05,10.0,Calm,Calm,-,N/A,,Scattered Clouds,0,2013-08-30 04:53:00
10:53 PM,70.0,63.0,78,30.06,10.0,Calm,Calm,-,N/A,,Overcast,0,2013-08-30 05:53:00
11:53 PM,69.1,62.1,78,30.06,10.0,Calm,Calm,-,N/A,,Scattered Clouds,0,2013-08-30 06:53:00